Weather History for Gulfport, MS

Change the Weather History Date:

Tuesday, February 12, 2013

  Actual Average Record
Temperature  
Mean Temperature 64 °F -  
Max Temperature 70 °F 61 °F 75 °F (1952)
Min Temperature 57 °F 42 °F 21 °F (1981)
Degree Days  
Heating Degree Days 2    
Growing Degree Days 14 (Base 50)    
Moisture  
Dew Point 60 °F    
Average Humidity 92    
Maximum Humidity 96    
Minimum Humidity 88    
Precipitation  
Precipitation 0.12 in - - ()
Sea Level Pressure  
Sea Level Pressure 29.89 in    
Wind  
Wind Speed 7 mph (NE)    
Max Wind Speed 9 mph    
Max Gust Speed 17 mph    
Visibility 3 miles    
Events Fog , Rain    
Averages and records for this station are not official NWS values.
T = Trace of Precipitation, MM = Missing Value Source: NWS Daily Summary

Daily Weather History Graph

Daily Weather History Graph

Search for Another Location

Airport:

Trip Planner

Search our weather history database for the weather conditions in past years. The results will help you decide how hot, cold, wet, or windy it might be!

Date:

Astronomy

Feb. 12, 2013 Rise Set
Actual Time 6:38 AM CST 5:42 PM CST
Civil Twilight 6:14 AM CST 6:07 PM CST
Nautical Twilight 5:46 AM CST 6:35 PM CST
Astronomical Twilight 5:18 AM CST 7:03 PM CST
Moon 7:51 AM CST (2/12) 8:25 PM CST (2/12)
Length of Visible Light 11h 52m
Length of Day
11h 03m
Waxing Crescent, 7% of the Moon is Illuminated
Feb 12
Waxing Crescent
Feb 17
First Quarter
Feb 25
Full
Mar 4
Last Quarter
Mar 11
New

Hourly Weather History & Observations

Time (CST) Temp. Dew Point Humidity Pressure Visibility Wind Dir Wind Speed Gust Speed Precip Events Conditions
12:07 AM 57.2 °F 55.4 °F 94% 30.05 in - North 6.9 mph - N/A   Overcast
12:53 AM 57.9 °F 55.9 °F 93% 30.04 in - NNE 8.1 mph - N/A   Overcast
1:25 AM 57.2 °F 55.4 °F 94% 30.05 in - North 4.6 mph - N/A   Overcast
1:53 AM 57.9 °F 55.0 °F 90% 30.04 in - NNE 4.6 mph - N/A   Overcast
2:53 AM 57.0 °F 55.0 °F 93% 30.02 in - NE 9.2 mph - N/A   Overcast
3:17 AM 57.2 °F 55.4 °F 94% 30.01 in - NE 9.2 mph - N/A   Overcast
3:40 AM 57.2 °F 55.4 °F 94% 30.00 in - NE 6.9 mph - N/A   Overcast
3:53 AM 57.0 °F 55.0 °F 93% 29.99 in - NE 9.2 mph 17.3 mph N/A   Overcast
4:53 AM 57.0 °F 55.0 °F 93% 29.99 in - NE 9.2 mph - N/A   Overcast
5:34 AM 57.2 °F 55.4 °F 94% 29.98 in - NE 8.1 mph - N/A   Overcast
5:45 AM 57.2 °F 55.4 °F 94% 29.97 in - ENE 9.2 mph - N/A   Overcast
5:53 AM 57.0 °F 55.0 °F 93% 29.97 in - NE 9.2 mph - N/A   Overcast
6:53 AM 57.0 °F 55.0 °F 93% 29.97 in 5.0 mi ENE 5.8 mph - N/A   Overcast
7:53 AM 57.0 °F 55.0 °F 93% 29.95 in 4.0 mi East 9.2 mph - N/A   Overcast
8:53 AM 57.9 °F 55.9 °F 93% 29.97 in 10.0 mi ENE 6.9 mph - N/A   Overcast
9:53 AM 57.9 °F 55.9 °F 93% 29.96 in 2.0 mi East 8.1 mph - 0.01 in Rain Rain
10:53 AM 59.0 °F 57.0 °F 93% 29.93 in 2.0 mi ENE 6.9 mph - 0.01 in   Overcast
11:53 AM 60.1 °F 57.9 °F 93% 29.89 in 2.0 mi East 6.9 mph - 0.02 in Rain Light Rain
12:43 PM 60.8 °F 59.0 °F 94% 29.85 in 2.0 mi NE 5.8 mph - 0.00 in   Overcast
12:53 PM 61.0 °F 59.0 °F 93% 29.84 in 2.0 mi ENE 6.9 mph - 0.00 in Rain Light Rain
1:51 PM 62.6 °F 60.8 °F 94% 29.80 in 1.0 mi East 3.5 mph - 0.07 in Rain Light Rain
1:53 PM 62.1 °F 60.1 °F 93% 29.81 in 1.0 mi Calm Calm - 0.07 in Rain Light Rain
2:53 PM 64.0 °F 63.0 °F 96% 29.78 in 0.5 mi Calm Calm - 0.01 in Fog Fog
3:53 PM 69.1 °F 66.9 °F 93% 29.76 in 1.2 mi South 9.2 mph 17.3 mph N/A   Overcast
4:53 PM 69.1 °F 66.9 °F 93% 29.76 in 1.2 mi SSW 9.2 mph 16.1 mph N/A   Overcast
5:53 PM 69.1 °F 66.9 °F 93% 29.76 in 1.2 mi Variable 4.6 mph - N/A   Overcast
6:53 PM 70.0 °F 66.9 °F 90% 29.76 in 1.2 mi SW 8.1 mph 16.1 mph 0.00 in   Overcast
7:00 PM 69.8 °F 66.2 °F 88% 29.76 in 2.0 mi SW 8.1 mph - N/A   Overcast
7:53 PM 70.0 °F 66.9 °F 90% 29.78 in 6.0 mi SW 6.9 mph - N/A   Overcast
8:53 PM 70.0 °F 66.9 °F 90% 29.78 in 6.0 mi Variable 3.5 mph - N/A   Mostly Cloudy
9:38 PM 69.8 °F 66.2 °F 88% 29.78 in 6.0 mi SW 4.6 mph - N/A   Scattered Clouds
9:40 PM 69.8 °F 66.2 °F 88% 29.78 in 6.0 mi SW 3.5 mph - N/A   Mostly Cloudy
9:53 PM 69.1 °F 66.0 °F 90% 29.79 in 6.0 mi WSW 5.8 mph - N/A   Mostly Cloudy
10:53 PM 69.1 °F 66.0 °F 90% 29.80 in - West 6.9 mph - N/A   Mostly Cloudy
11:02 PM 69.8 °F 66.2 °F 88% 29.80 in - Variable 3.5 mph - N/A   Mostly Cloudy
11:09 PM 69.8 °F 66.2 °F 88% 29.80 in - West 5.8 mph - N/A   Scattered Clouds
11:53 PM 68.0 °F 64.9 °F 90% 29.79 in - West 4.6 mph - N/A   Clear